Location: Clanezzo
(45.7500°N, 9.6000°E)
Time: 06:16:38
(UTC+00:00)

AO-73 - Pass Details

Date: 03 July 2022
Orbit: 579 x 657 km, 97.6° (Epoch: 09 August)

Event Time Altitude Azimuth Distance (km) Brightness Sun altitude
Rises 02:54:12 0° 20° (NNE) 2,965 ? -6.6°
Reaches altitude 10° 02:56:33 10° 28° (NNE) 2,060 ? -6.3°
Maximum altitude 03:00:45 38° 97° (E) 1,000 ? -5.8°
Drops below altitude 10° 03:04:58 10° 166° (SSE) 2,064 ? -5.2°
Sets 03:07:19 0° 174° (S) 2,972 ? -4.9°
